sat.trackr.live / text

‹ back to catalog

STARLINK-36781

NORAD 67931 · 2026-036AD

PAYLOAD ACTIVE UNKNOWN

§ Identity

Operator
Country
US
Launch date
2026-02-22
Launch site
AFETR
Launch vehicle
Mass (kg)
RCS (m²)

Purposes: comms

External: N2YO · Heavens-Above · Gunter

§ Orbital elements

Epoch: 2026-05-25T02:50:20.262048Z

Period
94.27 min
Inclination
43.0021°
Eccentricity
0.0001030
Mean motion
15.27587368 rev/d
Perigee alt
482.3 km
Apogee alt
483.7 km
Semi-major
6,861.2 km
B*
2.9545e-4
RAAN
173.3824°
Arg perigee
270.6348°
Mean anomaly
89.4386°
Rev number
1,541

§ Raw data

STARLINK-367811 67931U 26036AD  26145.11829007  .00007879  00000+0  29545-3 0  99972 67931  43.0021 173.3824 0001030 270.6348  89.4386 15.27587368 15411

JSON: /api/v1/satellites/67931 · /tle

For live sub-satellite position, see the globe view (requires WebGL).

§ Visibility from observer

Set your observer location to see the next 7 days of passes ≥ 10°. The values pass through the URL so the page stays shareable.

No JS? Fill the form by hand. The geolocation button needs JavaScript.